FW7648 Weather Reports


Display with metric or nautical units.
time (UTC)temp
F
wind
direction
speed
MPH
gust
MPH
rain 1hr
in
rain 24hr
in
rain mn
in
humidity
%
barometer
mb
20260502152059 53 281 3.0 8.0 0.00 0.01 0.00 53 1018.0
20260502151605 53 322 2.0 11.0 0.00 0.01 0.00 54 1017.9
20260502151056 53 332 4.0 11.0 0.00 0.01 0.00 56 1017.9
20260502150557 53 355 3.0 11.0 0.00 0.01 0.00 53 1018.0
20260502130556 45 17 0.0 5.0 0.00 0.01 0.00 87 1018.2
20260502123556 41 0 0.0 1.0 0.00 0.01 0.00 93 1018.0
20260502123056 40 0 0.0 1.0 0.00 0.01 0.00 94 1018.0
20260502122557 40 0 0.0 1.0 0.00 0.01 0.00 93 1018.1
20260502122056 39 0 0.0 0.0 0.00 0.01 0.00 94 1018.1
20260502121559 39 0 0.0 0.0 0.00 0.01 0.00 93 1018.0
20260502121057 38 0 0.0 1.0 0.00 0.01 0.00 93 1018.0
20260502120558 38 0 0.0 1.0 0.00 0.01 0.00 93 1018.1
20260502115556 39 0 0.0 0.0 0.00 0.01 0.00 93 1018.1
20260502115059 38 0 0.0 0.0 0.00 0.01 0.00 93 1018.1
20260502114557 38 0 0.0 0.0 0.00 0.01 0.00 93 1018.1
20260502114059 38 0 0.0 2.0 0.00 0.01 0.00 93 1018.1
20260502113556 38 0 0.0 3.0 0.00 0.01 0.00 93 1018.1
20260502113054 37 333 0.0 3.0 0.00 0.01 0.00 93 1018.2
20260502112555 37 333 0.0 3.0 0.00 0.01 0.00 93 1018.3
20260502112055 37 0 0.0 3.0 0.00 0.01 0.00 93 1018.2
20260502111602 37 346 0.0 3.0 0.00 0.01 0.00 93 1018.1
20260502111055 38 278 0.0 3.0 0.00 0.01 0.00 93 1018.2
20260502110557 38 0 0.0 2.0 0.00 0.01 0.00 93 1018.0
20260502110058 38 278 0.0 2.0 0.00 0.01 0.00 93 1018.0
20260502105558 38 0 0.0 1.0 0.00 0.01 0.00 93 1017.9
20260502105057 38 0 0.0 1.0 0.00 0.01 0.00 93 1017.6
20260502104556 38 0 0.0 1.0 0.00 0.01 0.00 93 1017.7
20260502104056 38 0 0.0 1.0 0.00 0.01 0.00 93 1017.8
20260502103558 38 0 0.0 0.0 0.00 0.01 0.00 93 1018.0
20260502103056 38 0 0.0 1.0 0.00 0.01 0.00 93 1018.1
20260502102557 38 0 0.0 1.0 0.00 0.01 0.00 93 1018.1
20260502102056 38 0 0.0 1.0 0.00 0.01 0.00 93 1018.1
20260502101555 38 0 0.0 1.0 0.00 0.01 0.00 93 1018.1
20260502101055 38 0 0.0 1.0 0.00 0.01 0.00 93 1018.2
20260502100556 38 0 0.0 0.0 0.00 0.01 0.00 93 1018.2
20260502091056 38 52 0.0 2.0 0.00 0.01 0.00 92 1018.1
20260502090558 37 0 0.0 1.0 0.00 0.01 0.00 92 1018.2
20260502090114 37 0 0.0 2.0 0.00 0.01 0.00 92 1018.3
20260502071057 38 0 0.0 2.0 0.00 0.01 0.00 92 1017.6
20260502070556 38 0 0.0 1.0 0.00 0.01 0.00 92 1017.6
20260502070109 38 0 0.0 2.0 0.00 0.01 0.00 91 1017.7
20260502065556 37 0 0.0 2.0 0.00 0.01 0.00 91 1017.9
20260502065056 37 0 0.0 2.0 0.00 0.01 0.00 91 1018.0
20260502064557 37 0 0.0 1.0 0.00 0.01 0.00 91 1017.9
20260502064056 37 0 0.0 1.0 0.00 0.01 0.00 91 1017.9
20260502063556 38 0 0.0 0.0 0.00 0.01 0.00 91 1017.9
20260502063057 38 0 0.0 0.0 0.00 0.01 0.00 91 1018.1
20260502062556 38 0 0.0 0.0 0.00 0.01 0.00 91 1018.2
20260502062056 38 0 0.0 1.0 0.00 0.01 0.00 91 1018.2
20260502061557 37 0 0.0 1.0 0.00 0.01 0.00 91 1018.3
20260502061055 37 0 0.0 1.0 0.00 0.01 0.00 91 1018.3
20260502060559 37 0 0.0 2.0 0.00 0.01 0.00 90 1018.3
20260502060055 37 0 0.0 2.0 0.00 0.01 0.00 91 1018.4
20260502055557 37 0 0.0 2.0 0.00 0.01 0.00 91 1018.4
20260502055056 37 0 0.0 1.0 0.00 0.01 0.00 91 1018.3
20260502054556 37 322 0.0 1.0 0.00 0.01 0.00 90 1018.5
20260502054056 37 0 0.0 1.0 0.00 0.01 0.00 90 1018.6
20260502053559 37 0 0.0 0.0 0.00 0.01 0.00 90 1018.4
20260502053124 37 0 0.0 0.0 0.00 0.01 0.00 90 1018.4
20260502052557 37 0 0.0 0.0 0.00 0.01 0.00 90 1018.4
20260502052100 37 0 0.0 0.0 0.00 0.01 0.00 90 1018.5
20260502051614 37 0 0.0 1.0 0.00 0.01 0.00 89 1018.3
20260502051100 37 0 0.0 2.0 0.00 0.01 0.00 90 1018.3
20260502050601 37 322 0.0 2.0 0.00 0.01 0.00 90 1018.3
20260502050059 37 0 0.0 0.0 0.00 0.01 0.00 89 1018.4
20260502045557 37 0 0.0 0.0 0.00 0.01 0.00 89 1018.5
20260502045059 37 0 0.0 1.0 0.00 0.01 0.00 89 1018.5
20260502044557 37 0 0.0 1.0 0.00 0.01 0.00 89 1018.7
20260502044059 37 0 0.0 1.0 0.00 0.01 0.00 89 1018.5
20260502043557 38 0 0.0 0.0 0.00 0.01 0.00 89 1018.5
20260502043111 38 0 0.0 0.0 0.00 0.01 0.00 89 1018.5
20260502042558 38 0 0.0 0.0 0.00 0.01 0.00 89 1018.5
20260502042058 38 0 0.0 1.0 0.00 0.01 0.00 89 1018.4
20260502041626 38 0 0.0 1.0 0.00 0.01 0.00 88 1018.5
20260502041057 38 0 0.0 0.0 0.00 0.01 0.00 88 1018.5
20260502040557 38 0 0.0 0.0 0.00 0.01 0.00 88 1018.5
20260502040058 38 0 0.0 0.0 0.00 0.01 0.00 88 1018.4
20260502035557 39 0 0.0 0.0 0.00 0.01 0.01 88 1018.3
20260502035057 39 0 0.0 1.0 0.00 0.01 0.01 88 1018.4
20260502034601 39 0 0.0 1.0 0.00 0.01 0.01 88 1018.4
20260502034056 39 0 0.0 1.0 0.00 0.01 0.01 88 1018.3
20260502033559 39 0 0.0 0.0 0.00 0.01 0.01 88 1018.3
20260502033109 39 0 0.0 0.0 0.00 0.01 0.01 87 1018.3
20260502032557 39 0 0.0 0.0 0.00 0.01 0.01 87 1018.2
20260502032057 39 0 0.0 1.0 0.00 0.01 0.01 87 1018.4
20260502031556 40 0 0.0 1.0 0.00 0.01 0.01 86 1018.4
20260502031058 40 0 0.0 1.0 0.00 0.01 0.01 86 1018.3
20260502030558 40 0 0.0 0.0 0.00 0.01 0.01 86 1018.4
20260502030058 40 0 0.0 0.0 0.00 0.01 0.01 86 1018.5
20260502025557 40 0 0.0 0.0 0.00 0.01 0.01 85 1018.5
20260502025057 41 0 0.0 0.0 0.00 0.01 0.01 85 1018.5
20260502024557 41 0 0.0 0.0 0.00 0.01 0.01 85 1018.4
20260502024058 41 0 0.0 0.0 0.00 0.01 0.01 85 1018.3
20260502023559 41 0 0.0 1.0 0.00 0.01 0.01 84 1018.2
20260502023059 42 0 0.0 1.0 0.00 0.01 0.01 84 1018.1
20260502022556 42 0 0.0 1.0 0.00 0.01 0.01 84 1017.8
20260502022056 42 0 0.0 0.0 0.00 0.01 0.01 84 1017.9
20260502021557 42 0 0.0 0.0 0.00 0.01 0.01 83 1017.9
20260502021056 43 0 0.0 0.0 0.00 0.01 0.01 83 1017.7
20260502020558 43 0 0.0 0.0 0.00 0.01 0.01 82 1017.7
20260502020106 43 0 0.0 0.0 0.00 0.01 0.01 81 1017.6
20260502015556 44 0 0.0 0.0 0.00 0.01 0.01 80 1017.3
20260502015056 44 0 0.0 0.0 0.00 0.01 0.01 79 1017.4
20260502014557 44 0 0.0 0.0 0.00 0.01 0.01 77 1017.4
20260502014056 45 0 0.0 0.0 0.00 0.01 0.01 75 1017.3
20260502013557 45 0 0.0 0.0 0.00 0.01 0.01 75 1017.3
20260502013056 46 0 0.0 0.0 0.00 0.01 0.01 74 1017.3
20260502012559 46 0 0.0 0.0 0.00 0.01 0.01 73 1017.1
20260502012056 46 0 0.0 1.0 0.00 0.01 0.01 72 1017.1
20260502011603 47 0 0.0 3.0 0.00 0.01 0.01 71 1016.9
20260502011057 47 0 0.0 3.0 0.00 0.01 0.01 70 1016.7
20260502010558 48 0 0.0 3.0 0.00 0.01 0.01 69 1016.6
20260502005556 48 9 0.0 3.0 0.00 0.01 0.01 68 1016.4
20260502005056 48 0 0.0 4.0 0.00 0.01 0.01 68 1016.3
20260502004555 48 0 1.0 4.0 0.00 0.01 0.01 68 1016.2
20260502004057 49 0 0.0 6.0 0.00 0.01 0.01 67 1016.2
20260502003556 49 349 1.0 7.0 0.00 0.01 0.01 66 1016.1
20260502003055 50 33 2.0 9.0 0.00 0.01 0.01 66 1015.9
20260502002557 50 316 3.0 10.0 0.00 0.01 0.01 66 1016.0
20260502002056 50 315 2.0 10.0 0.00 0.01 0.01 66 1016.3
20260502001602 50 315 2.0 11.0 0.00 0.01 0.01 65 1016.1
20260502001057 51 5 5.0 11.0 0.00 0.01 0.01 65 1015.8
20260502000556 51 321 2.0 11.0 0.00 0.01 0.01 66 1015.6
20260502000058 52 5 3.0 11.0 0.00 0.01 0.01 65 1015.3
20260501235559 52 345 5.0 14.0 0.00 0.01 0.01 64 1015.1
20260501235056 53 360 4.0 14.0 0.00 0.01 0.01 64 1015.0
20260501234557 53 311 4.0 10.0 0.00 0.01 0.01 64 1015.0
20260501234056 53 360 3.0 10.0 0.00 0.01 0.01 63 1014.8
20260501233556 53 339 2.0 10.0 0.00 0.01 0.01 63 1014.7
20260501233106 53 129 3.0 10.0 0.00 0.01 0.01 63 1014.6
20260501232555 53 285 3.0 8.0 0.00 0.01 0.01 63 1014.7
20260501232057 53 319 3.0 10.0 0.00 0.01 0.01 63 1014.5
20260501231621 54 232 3.0 11.0 0.00 0.01 0.01 64 1014.7
20260501231056 54 291 4.0 11.0 0.00 0.01 0.01 64 1014.6
20260501230556 54 273 2.0 12.0 0.00 0.01 0.01 65 1014.6
20260501230055 54 283 5.0 12.0 0.00 0.01 0.01 65 1014.5
20260501225556 54 346 5.0 11.0 0.00 0.01 0.01 65 1014.4
20260501225058 54 12 3.0 11.0 0.00 0.01 0.01 66 1014.4
20260501224558 54 308 3.0 9.0 0.00 0.01 0.01 68 1014.3
20260501224059 54 295 3.0 9.0 0.00 0.01 0.01 68 1014.4
20260501223600 54 332 2.0 9.0 0.00 0.01 0.01 69 1014.2
20260501223117 55 307 1.0 9.0 0.00 0.01 0.01 68 1014.4
20260501222556 55 329 3.0 10.0 0.00 0.01 0.01 67 1014.2
20260501222056 56 321 4.0 12.0 0.00 0.01 0.01 67 1014.0
20260501221556 56 254 3.0 12.0 0.00 0.01 0.01 66 1014.0
20260501221056 56 5 4.0 12.0 0.00 0.01 0.01 65 1014.0
20260501220556 57 342 4.0 11.0 0.00 0.01 0.01 66 1014.1
20260501220100 56 343 4.0 11.0 0.00 0.01 0.01 69 1014.1
20260501215556 56 211 2.0 7.0 0.00 0.01 0.01 71 1014.2
20260501215059 55 18 2.0 7.0 0.00 0.01 0.01 72 1014.0
20260501214557 54 298 1.0 4.0 0.00 0.01 0.01 74 1014.2
20260501214055 53 284 1.0 4.0 0.00 0.01 0.01 73 1014.0
20260501213555 53 257 1.0 4.0 0.00 0.01 0.01 74 1014.2
20260501213100 53 280 1.0 7.0 0.00 0.01 0.01 74 1014.0
20260501212556 53 292 1.0 7.0 0.00 0.01 0.01 74 1013.8
20260501212056 53 323 3.0 7.0 0.00 0.01 0.01 73 1013.9
20260501211558 52 305 1.0 6.0 0.00 0.01 0.01 74 1013.9
20260501211055 52 40 2.0 6.0 0.00 0.01 0.01 74 1014.0
20260501210556 52 311 0.0 4.0 0.00 0.01 0.01 75 1013.9
20260501210058 52 0 0.0 4.0 0.00 0.01 0.01 75 1013.9
20260501205556 52 313 1.0 5.0 0.00 0.01 0.01 74 1014.0
20260501205055 52 319 1.0 11.0 0.00 0.01 0.01 74 1013.8
20260501204614 53 305 3.0 11.0 0.00 0.01 0.01 74 1013.9
20260501204055 53 355 1.0 8.0 0.00 0.01 0.01 74 1013.9
20260501203556 53 279 2.0 9.0 0.00 0.01 0.01 74 1014.0
20260501203056 53 307 3.0 9.0 0.00 0.01 0.01 73 1014.0
20260501202556 53 311 2.0 8.0 0.00 0.01 0.01 73 1014.0
20260501202058 54 327 2.0 7.0 0.00 0.01 0.01 73 1014.0
20260501201607 54 304 3.0 7.0 0.00 0.01 0.01 73 1013.9
20260501201056 54 277 3.0 11.0 0.01 0.01 0.01 73 1013.9
20260501200556 54 321 3.0 14.0 0.01 0.01 0.01 73 1013.9
20260501200057 54 297 5.0 14.0 0.01 0.01 0.01 74 1013.8
20260501195557 54 306 3.0 14.0 0.01 0.01 0.01 73 1013.9
20260501195056 55 319 5.0 14.0 0.01 0.01 0.01 73 1013.7
20260501194556 55 319 4.0 14.0 0.01 0.01 0.01 74 1013.8
20260501194055 56 311 5.0 14.0 0.01 0.01 0.01 72 1013.7
20260501193558 56 172 3.0 9.0 0.01 0.01 0.01 74 1013.6
20260501193054 56 265 2.0 4.0 0.01 0.01 0.01 74 1013.5
20260501192601 56 309 1.0 4.0 0.01 0.01 0.01 74 1013.5
20260501192057 56 314 2.0 7.0 0.01 0.01 0.01 74 1013.5
20260501191600 55 265 1.0 7.0 0.01 0.01 0.01 75 1013.5
20260501191057 55 326 1.0 3.0 0.00 0.00 0.00 75 1013.6
20260501190556 55 0 0.0 9.0 0.00 0.00 0.00 75 1013.7
20260501190057 55 9 1.0 9.0 0.00 0.00 0.00 74 1013.5
20260501185556 56 328 2.0 10.0 0.00 0.00 0.00 70 1013.4
20260501185056 56 317 3.0 10.0 0.00 0.00 0.00 68 1013.4
20260501184603 57 276 3.0 9.0 0.00 0.00 0.00 66 1013.4
20260501184056 58 342 1.0 7.0 0.00 0.00 0.00 64 1013.1
20260501183601 58 25 1.0 5.0 0.00 0.00 0.00 64 1012.9
20260501183103 58 300 1.0 6.0 0.00 0.00 0.00 62 1012.9
20260501182556 59 304 1.0 6.0 0.00 0.00 0.00 61 1012.7
20260501182056 59 320 3.0 6.0 0.00 0.00 0.00 57 1012.8
20260501181600 60 237 2.0 9.0 0.00 0.00 0.00 55 1012.7
20260501181100 60 314 2.0 9.0 0.00 0.00 0.00 55 1012.7
20260501180556 60 273 2.0 8.0 0.00 0.00 0.00 53 1012.6
20260501175600 61 251 1.0 5.0 0.00 0.00 0.00 50 1012.5
20260501175057 61 315 2.0 11.0 0.00 0.00 0.00 53 1012.5
20260501174608 61 246 3.0 11.0 0.00 0.00 0.00 50 1012.6
20260501174057 61 269 4.0 8.0 0.00 0.00 0.00 50 1012.8
20260501173556 62 296 2.0 9.0 0.00 0.00 0.00 50 1012.8
20260501173054 62 273 2.0 9.0 0.00 0.00 0.00 51 1012.8
20260501172556 61 232 1.0 9.0 0.00 0.00 0.00 52 1012.7
20260501172058 62 142 3.0 9.0 0.00 0.00 0.00 52 1012.7
20260501171556 63 236 3.0 9.0 0.00 0.00 0.00 52 1012.9
20260501171056 62 264 2.0 9.0 0.00 0.00 0.00 52 1012.9
20260501170556 62 232 2.0 8.0 0.00 0.00 0.00 48 1012.8
20260501170057 63 262 3.0 8.0 0.00 0.00 0.00 50 1012.9
20260501165556 63 221 3.0 7.0 0.00 0.00 0.00 52 1012.9
20260501165100 62 307 1.0 7.0 0.00 0.00 0.00 52 1013.0
20260501164556 61 257 2.0 7.0 0.00 0.00 0.00 52 1013.1
20260501164057 61 209 1.0 9.0 0.00 0.00 0.00 53 1013.1
20260501163558 60 269 2.0 10.0 0.00 0.00 0.00 51 1013.2
20260501163100 60 264 2.0 10.0 0.00 0.00 0.00 53 1013.3
20260501162557 60 172 1.0 8.0 0.00 0.00 0.00 54 1013.3
20260501162057 60 0 3.0 8.0 0.00 0.00 0.00 51 1013.5
20260501161608 61 266 3.0 7.0 0.00 0.00 0.00 53 1013.5
20260501161056 62 245 1.0 7.0 0.00 0.00 0.00 56 1013.4
20260501160556 60 142 3.0 7.0 0.00 0.00 0.00 55 1013.6